| time (UTC) | temp C | wind direction | speed KPH | gust KPH | rain 1hr cm | rain 24hr cm | rain mn cm | humidity % | barometer mb |
| 20260509090519 | 20 | 86 | 3.2 | 11.3 | 0.00 | 0.84 | 0.00 | 88 | 1008.0 |
| 20260509090036 | 20 | 153 | 3.2 | 14.5 | 0.00 | 0.84 | 0.00 | 88 | 1007.5 |
| 20260509085518 | 20 | 165 | 3.2 | 14.5 | 0.00 | 1.19 | 0.00 | 88 | 1007.5 |
| 20260509085021 | 20 | 94 | 3.2 | 11.3 | 0.00 | 1.19 | 0.00 | 88 | 1007.5 |
| 20260509084538 | 20 | 137 | 3.2 | 17.7 | 0.00 | 1.19 | 0.00 | 88 | 1007.8 |
| 20260509084021 | 20 | 186 | 3.2 | 17.7 | 0.00 | 1.19 | 0.00 | 87 | 1007.9 |
| 20260509083520 | 21 | 154 | 3.2 | 14.5 | 0.00 | 1.19 | 0.00 | 87 | 1007.8 |
| 20260509083043 | 21 | 178 | 3.2 | 14.5 | 0.00 | 1.19 | 0.00 | 87 | 1007.8 |
| 20260509082522 | 21 | 184 | 1.6 | 14.5 | 0.00 | 1.19 | 0.00 | 87 | 1008.1 |
| 20260509082020 | 21 | 177 | 3.2 | 14.5 | 0.00 | 1.19 | 0.00 | 88 | 1008.4 |
| 20260509081539 | 21 | 167 | 3.2 | 14.5 | 0.00 | 1.19 | 0.00 | 87 | 1008.5 |
| 20260509081020 | 21 | 153 | 1.6 | 12.9 | 0.00 | 1.19 | 0.00 | 87 | 1008.6 |
| 20260509080522 | 21 | 161 | 1.6 | 12.9 | 0.00 | 1.19 | 0.00 | 87 | 1008.7 |
| 20260509080046 | 21 | 200 | 1.6 | 8.0 | 0.00 | 1.19 | 0.00 | 87 | 1009.2 |
| 20260509075520 | 21 | 154 | 1.6 | 8.0 | 0.00 | 1.75 | 0.00 | 87 | 1009.2 |
| 20260509075019 | 21 | 159 | 1.6 | 6.4 | 0.00 | 1.75 | 0.00 | 87 | 1009.5 |
| 20260509074543 | 21 | 157 | 1.6 | 6.4 | 0.00 | 1.75 | 0.00 | 87 | 1009.7 |
| 20260509074023 | 21 | 136 | 1.6 | 6.4 | 0.00 | 1.75 | 0.00 | 87 | 1009.9 |
| 20260509073520 | 21 | 0 | 1.6 | 8.0 | 0.00 | 1.75 | 0.00 | 88 | 1010.0 |
| 20260509073046 | 21 | 150 | 1.6 | 8.0 | 0.00 | 1.75 | 0.00 | 87 | 1010.2 |
| 20260509072521 | 20 | 138 | 1.6 | 8.0 | 0.00 | 1.75 | 0.00 | 87 | 1010.3 |
| 20260509072020 | 20 | 195 | 0.0 | 3.2 | 0.00 | 1.75 | 0.00 | 87 | 1010.4 |
| 20260509071538 | 20 | 0 | 0.0 | 3.2 | 0.00 | 1.75 | 0.00 | 87 | 1010.4 |
| 20260509071021 | 20 | 0 | 0.0 | 1.6 | 0.00 | 1.75 | 0.00 | 87 | 1010.5 |
| 20260509070522 | 20 | 271 | 0.0 | 1.6 | 0.00 | 1.75 | 0.00 | 87 | 1010.5 |
| 20260509070040 | 20 | 0 | 0.0 | 1.6 | 0.00 | 1.75 | 0.00 | 87 | 1010.6 |
| 20260509065523 | 20 | 0 | 0.0 | 3.2 | 0.00 | 1.75 | 0.00 | 87 | 1010.7 |
| 20260509065020 | 20 | 0 | 0.0 | 3.2 | 0.00 | 1.75 | 0.00 | 87 | 1010.6 |
| 20260509064538 | 20 | 226 | 0.0 | 3.2 | 0.00 | 1.75 | 0.00 | 86 | 1010.6 |
| 20260509064021 | 20 | 0 | 0.0 | 4.8 | 0.00 | 1.75 | 0.00 | 86 | 1010.4 |
| 20260509063520 | 20 | 226 | 0.0 | 4.8 | 0.00 | 1.75 | 0.00 | 86 | 1010.2 |
| 20260509063040 | 20 | 0 | 0.0 | 11.3 | 0.00 | 1.75 | 0.00 | 86 | 1010.0 |
| 20260509062518 | 20 | 224 | 1.6 | 11.3 | 0.00 | 1.75 | 0.00 | 86 | 1010.0 |
| 20260509062018 | 20 | 181 | 1.6 | 6.4 | 0.00 | 1.75 | 0.00 | 86 | 1010.0 |
| 20260509061550 | 20 | 190 | 1.6 | 6.4 | 0.00 | 1.75 | 0.00 | 86 | 1010.0 |
| 20260509061017 | 20 | 195 | 1.6 | 4.8 | 0.00 | 1.75 | 0.00 | 86 | 1010.1 |
| 20260509060520 | 20 | 190 | 0.0 | 4.8 | 0.00 | 1.75 | 0.00 | 86 | 1010.1 |
| 20260509060036 | 20 | 150 | 1.6 | 3.2 | 0.00 | 1.75 | 0.00 | 86 | 1010.1 |
| 20260509055525 | 20 | 178 | 0.0 | 3.2 | 0.00 | 1.75 | 0.00 | 86 | 1010.2 |
| 20260509055020 | 20 | 173 | 1.6 | 3.2 | 0.00 | 1.75 | 0.00 | 86 | 1010.2 |
| 20260509054550 | 20 | 0 | 0.0 | 1.6 | 0.00 | 1.75 | 0.00 | 86 | 1010.7 |
| 20260509054020 | 20 | 0 | 0.0 | 1.6 | 0.00 | 1.75 | 0.00 | 86 | 1010.7 |
| 20260509053521 | 20 | 0 | 0.0 | 1.6 | 0.00 | 1.75 | 0.00 | 86 | 1010.7 |
| 20260509053053 | 20 | 0 | 0.0 | 1.6 | 0.00 | 1.75 | 0.00 | 85 | 1011.0 |
| 20260509052524 | 20 | 0 | 0.0 | 1.6 | 0.00 | 1.75 | 0.00 | 85 | 1010.9 |
| 20260509052020 | 21 | 0 | 0.0 | 4.8 | 0.00 | 1.75 | 0.00 | 85 | 1010.9 |
| 20260509051537 | 20 | 200 | 0.0 | 8.0 | 0.00 | 1.75 | 0.00 | 85 | 1011.0 |
| 20260509051023 | 20 | 292 | 1.6 | 9.7 | 0.00 | 1.75 | 0.00 | 85 | 1011.5 |
| 20260509050520 | 20 | 263 | 4.8 | 9.7 | 0.00 | 1.75 | 0.00 | 86 | 1011.8 |
| 20260509050038 | 20 | 335 | 3.2 | 4.8 | 0.00 | 1.75 | 0.00 | 85 | 1011.5 |
| 20260509045524 | 20 | 322 | 1.6 | 4.8 | 0.00 | 1.75 | 1.75 | 84 | 1011.0 |
| 20260509045019 | 20 | 0 | 0.0 | 4.8 | 0.00 | 1.75 | 1.75 | 84 | 1010.3 |
| 20260509044544 | 20 | 0 | 0.0 | 4.8 | 0.03 | 1.75 | 1.75 | 84 | 1010.2 |
| 20260509044017 | 20 | 227 | 1.6 | 3.2 | 0.03 | 1.75 | 1.75 | 84 | 1009.9 |
| 20260509043517 | 20 | 0 | 0.0 | 3.2 | 0.03 | 1.75 | 1.75 | 84 | 1010.1 |
| 20260509043034 | 21 | 78 | 0.0 | 4.8 | 0.03 | 1.75 | 1.75 | 83 | 1010.1 |
| 20260509042519 | 21 | 0 | 0.0 | 8.0 | 0.03 | 1.75 | 1.75 | 83 | 1009.9 |
| 20260509042019 | 21 | 157 | 1.6 | 8.0 | 0.03 | 1.75 | 1.75 | 82 | 1009.7 |
| 20260509041538 | 21 | 176 | 3.2 | 11.3 | 0.03 | 1.75 | 1.75 | 82 | 1009.7 |
| 20260509041019 | 21 | 182 | 3.2 | 11.3 | 0.03 | 1.75 | 1.75 | 82 | 1010.0 |
| 20260509040519 | 21 | 175 | 3.2 | 16.1 | 0.03 | 1.75 | 1.75 | 82 | 1010.1 |
| 20260509040039 | 21 | 155 | 3.2 | 16.1 | 0.03 | 1.75 | 1.75 | 82 | 1009.7 |
| 20260509035521 | 21 | 176 | 3.2 | 6.4 | 0.03 | 1.75 | 1.75 | 82 | 1009.8 |
| 20260509035019 | 22 | 193 | 1.6 | 6.4 | 0.03 | 1.75 | 1.75 | 80 | 1010.2 |
| 20260509034538 | 22 | 144 | 1.6 | 4.8 | 0.00 | 1.73 | 1.73 | 77 | 1010.2 |
| 20260509034022 | 22 | 154 | 0.0 | 3.2 | 0.00 | 1.73 | 1.73 | 76 | 1010.9 |
| 20260509033520 | 22 | 0 | 0.0 | 3.2 | 0.00 | 1.73 | 1.73 | 76 | 1011.2 |
| 20260509033038 | 22 | 43 | 0.0 | 3.2 | 0.00 | 1.73 | 1.73 | 77 | 1011.1 |
| 20260509032518 | 22 | 43 | 0.0 | 3.2 | 0.00 | 1.73 | 1.73 | 76 | 1011.0 |
| 20260509032023 | 22 | 0 | 0.0 | 6.4 | 0.00 | 1.73 | 1.73 | 77 | 1010.6 |
| 20260509031537 | 22 | 0 | 0.0 | 6.4 | 0.00 | 1.73 | 1.73 | 77 | 1010.4 |
| 20260509031020 | 22 | 150 | 0.0 | 4.8 | 0.00 | 1.73 | 1.73 | 76 | 1010.4 |
| 20260509030521 | 22 | 0 | 0.0 | 4.8 | 0.00 | 1.73 | 1.73 | 76 | 1010.3 |
| 20260509030035 | 22 | 0 | 0.0 | 3.2 | 0.00 | 1.73 | 1.73 | 76 | 1010.4 |
| 20260509025521 | 22 | 0 | 1.6 | 3.2 | 0.00 | 1.73 | 1.73 | 76 | 1010.5 |
| 20260509025017 | 22 | 0 | 0.0 | 3.2 | 0.00 | 1.73 | 1.73 | 76 | 1010.3 |
| 20260509024538 | 22 | 0 | 1.6 | 3.2 | 0.00 | 1.73 | 1.73 | 76 | 1010.0 |
| 20260509024018 | 22 | 57 | 0.0 | 3.2 | 0.00 | 1.73 | 1.73 | 76 | 1010.0 |
| 20260509023518 | 22 | 32 | 0.0 | 6.4 | 0.00 | 1.73 | 1.73 | 76 | 1009.9 |
| 20260509023039 | 22 | 0 | 1.6 | 11.3 | 0.00 | 1.73 | 1.73 | 76 | 1009.5 |
| 20260509022522 | 22 | 143 | 1.6 | 11.3 | 0.00 | 1.73 | 1.73 | 76 | 1009.2 |
| 20260509022018 | 22 | 190 | 1.6 | 9.7 | 0.00 | 1.73 | 1.73 | 76 | 1009.0 |
| 20260509021538 | 22 | 182 | 1.6 | 9.7 | 0.00 | 1.73 | 1.73 | 76 | 1009.0 |
| 20260509021021 | 22 | 125 | 1.6 | 8.0 | 0.00 | 1.73 | 1.73 | 75 | 1009.1 |
| 20260509020521 | 22 | 165 | 1.6 | 8.0 | 0.00 | 1.73 | 1.73 | 75 | 1009.1 |
| 20260509020039 | 22 | 156 | 0.0 | 8.0 | 0.00 | 1.73 | 1.73 | 74 | 1009.2 |
| 20260509015518 | 22 | 181 | 1.6 | 8.0 | 0.00 | 1.73 | 1.73 | 74 | 1009.1 |
| 20260509015020 | 22 | 0 | 1.6 | 14.5 | 0.00 | 1.73 | 1.73 | 74 | 1009.0 |
| 20260509014535 | 22 | 142 | 1.6 | 14.5 | 0.00 | 1.73 | 1.73 | 73 | 1008.9 |
| 20260509014030 | 22 | 182 | 1.6 | 8.0 | 0.00 | 1.73 | 1.73 | 73 | 1008.9 |
| 20260509013521 | 22 | 159 | 0.0 | 6.4 | 0.00 | 1.73 | 1.73 | 73 | 1008.8 |
| 20260509013034 | 22 | 178 | 1.6 | 6.4 | 0.00 | 1.73 | 1.73 | 72 | 1008.9 |
| 20260509012518 | 22 | 192 | 1.6 | 4.8 | 0.00 | 1.73 | 1.73 | 73 | 1008.9 |
| 20260509012018 | 22 | 192 | 0.0 | 4.8 | 0.00 | 1.73 | 1.73 | 72 | 1009.0 |
| 20260509011538 | 22 | 142 | 0.0 | 3.2 | 0.00 | 1.73 | 1.73 | 72 | 1009.0 |
| 20260509011017 | 22 | 178 | 0.0 | 4.8 | 0.00 | 1.73 | 1.73 | 72 | 1008.9 |
| 20260509010520 | 22 | 159 | 0.0 | 4.8 | 0.00 | 1.73 | 1.73 | 71 | 1008.9 |
| 20260509010038 | 22 | 167 | 0.0 | 6.4 | 0.00 | 1.73 | 1.73 | 71 | 1008.9 |
| 20260509005520 | 22 | 0 | 0.0 | 6.4 | 0.00 | 1.73 | 1.73 | 71 | 1008.9 |
| 20260509005017 | 23 | 163 | 1.6 | 6.4 | 0.00 | 1.73 | 1.73 | 70 | 1008.7 |
| 20260509004540 | 23 | 150 | 1.6 | 6.4 | 0.00 | 1.73 | 1.73 | 70 | 1008.6 |
| 20260509004018 | 23 | 175 | 1.6 | 9.7 | 0.00 | 1.73 | 1.73 | 70 | 1008.4 |
| 20260509003524 | 23 | 186 | 1.6 | 12.9 | 0.00 | 1.73 | 1.73 | 69 | 1008.3 |
| 20260509003039 | 23 | 128 | 3.2 | 12.9 | 0.00 | 1.73 | 1.73 | 69 | 1008.3 |
| 20260509002519 | 23 | 158 | 1.6 | 8.0 | 0.00 | 1.73 | 1.73 | 69 | 1008.3 |
| 20260509002022 | 23 | 183 | 1.6 | 11.3 | 0.00 | 1.73 | 1.73 | 68 | 1008.3 |
| 20260509001538 | 23 | 213 | 1.6 | 17.7 | 0.00 | 1.73 | 1.73 | 68 | 1008.3 |
| 20260509001022 | 23 | 146 | 3.2 | 17.7 | 0.00 | 1.73 | 1.73 | 68 | 1008.3 |
| 20260509000522 | 24 | 152 | 1.6 | 11.3 | 0.00 | 1.73 | 1.73 | 67 | 1008.3 |
| 20260509000038 | 24 | 167 | 1.6 | 9.7 | 0.00 | 1.73 | 1.73 | 67 | 1008.4 |
| 20260508235526 | 24 | 94 | 1.6 | 9.7 | 0.00 | 1.73 | 1.73 | 66 | 1008.3 |
| 20260508235023 | 24 | 157 | 1.6 | 8.0 | 0.00 | 1.73 | 1.73 | 66 | 1008.6 |
| 20260508234539 | 24 | 0 | 1.6 | 9.7 | 0.00 | 1.73 | 1.73 | 65 | 1008.6 |
| 20260508234022 | 24 | 167 | 3.2 | 11.3 | 0.00 | 1.73 | 1.73 | 65 | 1008.7 |
| 20260508233522 | 25 | 171 | 1.6 | 14.5 | 0.00 | 1.73 | 1.73 | 65 | 1008.7 |
| 20260508233037 | 25 | 177 | 1.6 | 14.5 | 0.00 | 1.73 | 1.73 | 65 | 1008.7 |
| 20260508232522 | 25 | 166 | 1.6 | 8.0 | 0.00 | 1.73 | 1.73 | 65 | 1008.6 |
| 20260508232022 | 25 | 198 | 1.6 | 12.9 | 0.00 | 1.73 | 1.73 | 65 | 1008.8 |
| 20260508231552 | 25 | 169 | 1.6 | 12.9 | 0.00 | 1.73 | 1.73 | 64 | 1008.7 |
| 20260508231022 | 25 | 195 | 3.2 | 8.0 | 0.00 | 1.73 | 1.73 | 64 | 1008.8 |
| 20260508230521 | 25 | 194 | 1.6 | 8.0 | 0.00 | 1.73 | 1.73 | 64 | 1008.8 |
| 20260508230051 | 25 | 171 | 0.0 | 8.0 | 0.00 | 1.73 | 1.73 | 65 | 1008.8 |
| 20260508225525 | 25 | 0 | 0.0 | 8.0 | 0.00 | 1.73 | 1.73 | 65 | 1008.9 |
| 20260508225023 | 25 | 232 | 0.0 | 9.7 | 0.00 | 1.73 | 1.73 | 64 | 1008.9 |
| 20260508224538 | 25 | 0 | 1.6 | 9.7 | 0.00 | 1.73 | 1.73 | 64 | 1008.8 |
| 20260508224022 | 25 | 0 | 1.6 | 6.4 | 0.00 | 1.73 | 1.73 | 64 | 1008.8 |
| 20260508223522 | 26 | 0 | 0.0 | 9.7 | 0.00 | 1.73 | 1.73 | 63 | 1008.9 |
| 20260508223043 | 26 | 196 | 1.6 | 9.7 | 0.00 | 1.73 | 1.73 | 63 | 1008.9 |
| 20260508222522 | 26 | 0 | 1.6 | 8.0 | 0.00 | 1.73 | 1.73 | 62 | 1008.9 |
| 20260508222022 | 26 | 0 | 0.0 | 6.4 | 0.00 | 1.73 | 1.73 | 62 | 1008.8 |
| 20260508221538 | 26 | 167 | 0.0 | 6.4 | 0.00 | 1.73 | 1.73 | 62 | 1008.7 |
| 20260508221022 | 26 | 186 | 0.0 | 12.9 | 0.00 | 1.73 | 1.73 | 62 | 1008.7 |
| 20260508220521 | 26 | 201 | 3.2 | 12.9 | 0.00 | 1.73 | 1.73 | 60 | 1008.6 |
| 20260508220043 | 26 | 0 | 1.6 | 8.0 | 0.00 | 1.73 | 1.73 | 62 | 1008.6 |
| 20260508215526 | 26 | 196 | 1.6 | 11.3 | 0.00 | 1.73 | 1.73 | 62 | 1008.7 |
| 20260508215022 | 26 | 215 | 3.2 | 11.3 | 0.00 | 1.73 | 1.73 | 61 | 1008.8 |
| 20260508214554 | 26 | 192 | 1.6 | 11.3 | 0.00 | 1.73 | 1.73 | 60 | 1008.7 |
| 20260508214021 | 26 | 198 | 3.2 | 12.9 | 0.00 | 1.73 | 1.73 | 61 | 1008.6 |
| 20260508213521 | 26 | 188 | 3.2 | 12.9 | 0.00 | 1.73 | 1.73 | 61 | 1008.6 |
| 20260508213046 | 26 | 215 | 1.6 | 9.7 | 0.00 | 1.73 | 1.73 | 61 | 1008.6 |
| 20260508212522 | 26 | 223 | 3.2 | 9.7 | 0.00 | 1.73 | 1.73 | 62 | 1008.7 |
| 20260508212021 | 26 | 155 | 1.6 | 12.9 | 0.00 | 1.73 | 1.73 | 60 | 1008.9 |
| 20260508211542 | 26 | 154 | 3.2 | 12.9 | 0.00 | 1.73 | 1.73 | 60 | 1008.9 |
| 20260508211022 | 26 | 128 | 1.6 | 11.3 | 0.00 | 1.73 | 1.73 | 61 | 1009.2 |
| 20260508210522 | 26 | 215 | 1.6 | 11.3 | 0.00 | 1.73 | 1.73 | 60 | 1009.4 |
| 20260508210041 | 25 | 194 | 3.2 | 8.0 | 0.00 | 1.73 | 1.73 | 62 | 1009.6 |
| 20260508205521 | 25 | 167 | 1.6 | 8.0 | 0.00 | 1.73 | 1.73 | 64 | 1009.9 |
| 20260508205021 | 25 | 246 | 1.6 | 8.0 | 0.00 | 1.73 | 1.73 | 64 | 1009.9 |
| 20260508204538 | 25 | 0 | 0.0 | 4.8 | 0.00 | 1.73 | 1.73 | 64 | 1010.1 |
| 20260508204021 | 25 | 203 | 1.6 | 4.8 | 0.00 | 1.73 | 1.73 | 62 | 1010.4 |
| 20260508203521 | 25 | 0 | 1.6 | 4.8 | 0.00 | 1.73 | 1.73 | 63 | 1010.7 |
| 20260508203037 | 25 | 198 | 0.0 | 4.8 | 0.00 | 1.73 | 1.73 | 63 | 1010.7 |
| 20260508202520 | 25 | 226 | 0.0 | 4.8 | 0.00 | 1.73 | 1.73 | 63 | 1010.6 |
| 20260508202022 | 25 | 352 | 1.6 | 4.8 | 0.00 | 1.73 | 1.73 | 62 | 1010.7 |
| 20260508201541 | 25 | 219 | 0.0 | 4.8 | 0.00 | 1.73 | 1.73 | 62 | 1010.7 |
| 20260508201022 | 26 | 236 | 1.6 | 4.8 | 0.00 | 1.73 | 1.73 | 60 | 1010.7 |
| 20260508200522 | 26 | 219 | 1.6 | 8.0 | 0.00 | 1.73 | 1.73 | 60 | 1010.7 |
| 20260508200040 | 26 | 88 | 3.2 | 8.0 | 0.00 | 1.73 | 1.73 | 59 | 1010.7 |
| 20260508195521 | 26 | 132 | 0.0 | 6.4 | 0.00 | 1.73 | 1.73 | 59 | 1010.7 |
| 20260508195021 | 26 | 0 | 1.6 | 6.4 | 0.00 | 1.73 | 1.73 | 58 | 1010.8 |
| 20260508194538 | 26 | 0 | 1.6 | 6.4 | 0.00 | 1.73 | 1.73 | 59 | 1010.8 |
| 20260508194021 | 26 | 147 | 1.6 | 4.8 | 0.00 | 1.73 | 1.73 | 57 | 1010.7 |
| 20260508193521 | 26 | 89 | 1.6 | 4.8 | 0.00 | 1.73 | 1.73 | 59 | 1010.8 |
| 20260508193045 | 26 | 166 | 0.0 | 6.4 | 0.00 | 1.73 | 1.73 | 57 | 1010.9 |
| 20260508192521 | 26 | 196 | 0.0 | 11.3 | 0.00 | 1.73 | 1.73 | 56 | 1010.9 |
| 20260508192022 | 26 | 182 | 3.2 | 11.3 | 0.00 | 1.73 | 1.73 | 55 | 1010.9 |
| 20260508191540 | 26 | 164 | 1.6 | 9.7 | 0.00 | 1.73 | 1.73 | 56 | 1011.0 |
| 20260508191022 | 26 | 156 | 1.6 | 9.7 | 0.00 | 1.73 | 1.73 | 55 | 1011.0 |
| 20260508190525 | 26 | 159 | 1.6 | 9.7 | 0.00 | 1.73 | 1.73 | 59 | 1011.0 |
| 20260508190042 | 26 | 119 | 3.2 | 8.0 | 0.00 | 1.73 | 1.73 | 58 | 1011.0 |
| 20260508185523 | 26 | 143 | 3.2 | 11.3 | 0.00 | 1.73 | 1.73 | 58 | 1011.0 |
| 20260508185022 | 26 | 155 | 1.6 | 11.3 | 0.00 | 1.73 | 1.73 | 56 | 1011.1 |
| 20260508184539 | 26 | 153 | 1.6 | 11.3 | 0.00 | 1.73 | 1.73 | 59 | 1011.0 |
| 20260508184022 | 25 | 186 | 0.0 | 8.0 | 0.00 | 1.73 | 1.73 | 59 | 1011.1 |
| 20260508183521 | 25 | 113 | 1.6 | 9.7 | 0.00 | 1.73 | 1.73 | 61 | 1011.2 |
| 20260508183039 | 25 | 236 | 3.2 | 9.7 | 0.00 | 1.73 | 1.73 | 57 | 1011.4 |
| 20260508182523 | 25 | 0 | 1.6 | 9.7 | 0.00 | 1.73 | 1.73 | 59 | 1011.4 |
| 20260508182021 | 25 | 150 | 1.6 | 11.3 | 0.00 | 1.73 | 1.73 | 60 | 1011.4 |
| 20260508181540 | 24 | 142 | 1.6 | 11.3 | 0.00 | 1.73 | 1.73 | 60 | 1011.5 |
| 20260508181022 | 25 | 0 | 1.6 | 6.4 | 0.00 | 1.73 | 1.73 | 58 | 1011.6 |
| 20260508180522 | 25 | 171 | 1.6 | 6.4 | 0.00 | 1.73 | 1.73 | 59 | 1011.8 |
| 20260508180038 | 25 | 171 | 1.6 | 16.1 | 0.00 | 1.73 | 1.73 | 60 | 1011.8 |
| 20260508175522 | 24 | 92 | 3.2 | 16.1 | 0.00 | 1.73 | 1.73 | 58 | 1011.9 |
| 20260508175022 | 25 | 160 | 3.2 | 11.3 | 0.00 | 1.73 | 1.73 | 58 | 1012.0 |
| 20260508174539 | 25 | 0 | 0.0 | 9.7 | 0.00 | 1.73 | 1.73 | 60 | 1012.0 |
| 20260508174022 | 24 | 108 | 1.6 | 9.7 | 0.00 | 1.73 | 1.73 | 61 | 1012.0 |
| 20260508173520 | 24 | 105 | 1.6 | 9.7 | 0.00 | 1.73 | 1.73 | 61 | 1012.2 |
| 20260508173039 | 23 | 124 | 0.0 | 8.0 | 0.00 | 1.73 | 1.73 | 62 | 1012.2 |
| 20260508172520 | 23 | 144 | 1.6 | 6.4 | 0.00 | 1.73 | 1.73 | 60 | 1012.2 |
| 20260508172022 | 23 | 145 | 0.0 | 3.2 | 0.00 | 1.73 | 1.73 | 62 | 1012.5 |
| 20260508171539 | 23 | 0 | 0.0 | 9.7 | 0.00 | 1.73 | 1.73 | 61 | 1012.7 |
| 20260508171025 | 23 | 156 | 1.6 | 12.9 | 0.00 | 1.73 | 1.73 | 61 | 1012.8 |
| 20260508170521 | 23 | 0 | 1.6 | 12.9 | 0.00 | 1.73 | 1.73 | 60 | 1013.1 |
| 20260508170040 | 23 | 142 | 3.2 | 12.9 | 0.00 | 1.73 | 1.73 | 61 | 1013.3 |
| 20260508165519 | 23 | 166 | 1.6 | 9.7 | 0.00 | 1.73 | 1.73 | 61 | 1013.4 |
| 20260508165021 | 23 | 0 | 1.6 | 17.7 | 0.00 | 1.73 | 1.73 | 63 | 1013.5 |
| 20260508164537 | 22 | 175 | 1.6 | 17.7 | 0.00 | 1.73 | 1.73 | 63 | 1013.6 |
| 20260508164021 | 22 | 157 | 1.6 | 8.0 | 0.00 | 1.73 | 1.73 | 66 | 1013.6 |
| 20260508163522 | 22 | 138 | 0.0 | 11.3 | 0.00 | 1.73 | 1.73 | 67 | 1013.7 |
| 20260508163039 | 21 | 165 | 1.6 | 11.3 | 0.00 | 1.73 | 1.73 | 67 | 1013.7 |
| 20260508162522 | 21 | 0 | 0.0 | 4.8 | 0.00 | 1.73 | 1.73 | 69 | 1014.0 |
| 20260508162021 | 21 | 165 | 0.0 | 9.7 | 0.00 | 1.73 | 1.73 | 69 | 1014.0 |
| 20260508161543 | 21 | 0 | 1.6 | 9.7 | 0.00 | 1.73 | 1.73 | 70 | 1014.1 |
| 20260508161022 | 20 | 0 | 0.0 | 9.7 | 0.00 | 1.73 | 1.73 | 71 | 1014.1 |
| 20260508160521 | 20 | 0 | 1.6 | 12.9 | 0.00 | 1.73 | 1.73 | 71 | 1014.1 |
| 20260508160040 | 20 | 0 | 3.2 | 12.9 | 0.00 | 1.73 | 1.73 | 72 | 1014.1 |
| 20260508155526 | 20 | 0 | 1.6 | 8.0 | 0.00 | 1.73 | 1.73 | 73 | 1014.1 |
| 20260508155020 | 19 | 168 | 0.0 | 4.8 | 0.00 | 1.73 | 1.73 | 75 | 1014.2 |
| 20260508154538 | 19 | 0 | 0.0 | 6.4 | 0.00 | 1.73 | 1.73 | 77 | 1014.3 |
| 20260508154021 | 19 | 209 | 1.6 | 9.7 | 0.00 | 1.73 | 1.73 | 75 | 1014.5 |
| 20260508153522 | 19 | 0 | 1.6 | 12.9 | 0.00 | 1.73 | 1.73 | 77 | 1014.5 |
| 20260508153039 | 19 | 167 | 1.6 | 12.9 | 0.00 | 1.73 | 1.73 | 78 | 1014.4 |
| 20260508152521 | 19 | 150 | 1.6 | 6.4 | 0.00 | 1.73 | 1.73 | 81 | 1014.3 |
| 20260508152025 | 19 | 0 | 0.0 | 8.0 | 0.00 | 1.73 | 1.73 | 80 | 1014.3 |
| 20260508151538 | 19 | 236 | 0.0 | 8.0 | 0.00 | 1.73 | 1.73 | 80 | 1014.5 |
| 20260508151020 | 18 | 153 | 0.0 | 6.4 | 0.00 | 1.73 | 1.73 | 81 | 1014.5 |
| 20260508150519 | 18 | 196 | 1.6 | 9.7 | 0.00 | 1.73 | 1.73 | 82 | 1014.4 |
| 20260508150037 | 18 | 0 | 0.0 | 9.7 | 0.00 | 1.73 | 1.73 | 83 | 1014.4 |
| 20260508145521 | 18 | 0 | 1.6 | 8.0 | 0.00 | 1.73 | 1.73 | 84 | 1014.5 |
| 20260508145023 | 18 | 168 | 1.6 | 8.0 | 0.00 | 1.73 | 1.73 | 84 | 1014.4 |
| 20260508144537 | 17 | 135 | 0.0 | 8.0 | 0.00 | 1.73 | 1.73 | 85 | 1014.6 |
| 20260508144022 | 17 | 132 | 1.6 | 8.0 | 0.00 | 1.73 | 1.73 | 86 | 1014.6 |
| 20260508143523 | 17 | 180 | 1.6 | 6.4 | 0.00 | 1.73 | 1.73 | 88 | 1014.5 |
| 20260508143034 | 17 | 175 | 0.0 | 6.4 | 0.00 | 1.73 | 1.73 | 89 | 1014.6 |
| 20260508142522 | 17 | 0 | 1.6 | 6.4 | 0.00 | 1.73 | 1.73 | 89 | 1014.7 |
| 20260508142022 | 17 | 0 | 0.0 | 4.8 | 0.00 | 1.73 | 1.73 | 89 | 1014.6 |
| 20260508141540 | 17 | 0 | 0.0 | 4.8 | 0.00 | 1.73 | 1.73 | 91 | 1014.6 |
| 20260508141023 | 16 | 135 | 0.0 | 3.2 | 0.00 | 1.73 | 1.73 | 89 | 1014.8 |
| 20260508140524 | 16 | 115 | 0.0 | 4.8 | 0.00 | 1.73 | 1.73 | 90 | 1014.8 |
| 20260508140041 | 16 | 86 | 0.0 | 4.8 | 0.05 | 1.73 | 1.73 | 90 | 1014.7 |
| 20260508135526 | 16 | 143 | 0.0 | 4.8 | 0.08 | 1.73 | 1.73 | 91 | 1014.6 |
| 20260508135021 | 16 | 136 | 0.0 | 4.8 | 0.08 | 1.73 | 1.73 | 91 | 1014.7 |
| 20260508134542 | 16 | 0 | 0.0 | 3.2 | 0.10 | 1.73 | 1.73 | 91 | 1014.9 |
| 20260508134022 | 16 | 140 | 0.0 | 3.2 | 0.10 | 1.73 | 1.73 | 92 | 1014.6 |
| 20260508133526 | 15 | 142 | 0.0 | 6.4 | 0.10 | 1.73 | 1.73 | 93 | 1014.6 |
| 20260508133039 | 15 | 150 | 0.0 | 6.4 | 0.10 | 1.73 | 1.73 | 93 | 1014.6 |
| 20260508132522 | 15 | 163 | 1.6 | 9.7 | 0.10 | 1.73 | 1.73 | 93 | 1014.7 |
| 20260508132021 | 15 | 0 | 0.0 | 9.7 | 0.10 | 1.73 | 1.73 | 92 | 1014.7 |
| 20260508131541 | 15 | 220 | 1.6 | 6.4 | 0.10 | 1.73 | 1.73 | 93 | 1014.5 |
| 20260508131022 | 15 | 165 | 1.6 | 6.4 | 0.10 | 1.73 | 1.73 | 93 | 1014.6 |
| 20260508130521 | 15 | 147 | 0.0 | 4.8 | 0.08 | 1.70 | 1.70 | 92 | 1014.7 |
| 20260508130036 | 15 | 150 | 1.6 | 4.8 | 0.05 | 1.68 | 1.68 | 93 | 1014.6 |
| 20260508125523 | 15 | 0 | 0.0 | 1.6 | 0.03 | 1.65 | 1.65 | 93 | 1015.2 |
| 20260508125023 | 15 | 0 | 0.0 | 3.2 | 0.03 | 1.65 | 1.65 | 93 | 1015.2 |
| 20260508124538 | 15 | 0 | 0.0 | 3.2 | 0.00 | 1.63 | 1.63 | 93 | 1014.9 |
| 20260508124022 | 15 | 138 | 0.0 | 1.6 | 0.00 | 1.63 | 1.63 | 93 | 1015.0 |
| 20260508123523 | 15 | 0 | 0.0 | 1.6 | 0.00 | 1.63 | 1.63 | 93 | 1015.2 |
| 20260508123038 | 15 | 0 | 0.0 | 1.6 | 0.00 | 1.63 | 1.63 | 92 | 1015.0 |
| 20260508122521 | 15 | 0 | 0.0 | 1.6 | 0.00 | 1.63 | 1.63 | 92 | 1014.9 |
| 20260508122022 | 15 | 0 | 0.0 | 1.6 | 0.00 | 1.63 | 1.63 | 93 | 1015.0 |
| 20260508121542 | 15 | 0 | 0.0 | 3.2 | 0.10 | 1.63 | 1.63 | 92 | 1015.1 |
| 20260508121023 | 15 | 0 | 0.0 | 6.4 | 0.30 | 1.63 | 1.63 | 92 | 1015.2 |
| 20260508120521 | 15 | 0 | 0.0 | 8.0 | 0.38 | 1.63 | 1.63 | 92 | 1014.8 |
| 20260508120042 | 15 | 0 | 3.2 | 8.0 | 0.46 | 1.63 | 1.63 | 92 | 1014.7 |
| 20260508115522 | 15 | 162 | 1.6 | 8.0 | 0.51 | 1.63 | 1.63 | 93 | 1014.8 |
| 20260508115021 | 15 | 136 | 0.0 | 8.0 | 0.53 | 1.63 | 1.63 | 92 | 1015.0 |
| 20260508114541 | 15 | 167 | 1.6 | 8.0 | 0.53 | 1.63 | 1.63 | 92 | 1014.7 |
| 20260508114022 | 15 | 171 | 1.6 | 6.4 | 0.53 | 1.63 | 1.63 | 92 | 1014.7 |
| 20260508113521 | 15 | 151 | 1.6 | 6.4 | 0.56 | 1.63 | 1.63 | 92 | 1014.8 |
| 20260508113041 | 15 | 153 | 1.6 | 6.4 | 0.56 | 1.63 | 1.63 | 92 | 1014.5 |
| 20260508112521 | 15 | 0 | 0.0 | 4.8 | 0.56 | 1.63 | 1.63 | 92 | 1014.8 |
| 20260508112023 | 15 | 196 | 1.6 | 4.8 | 0.61 | 1.63 | 1.63 | 92 | 1014.6 |
| 20260508111554 | 15 | 132 | 0.0 | 3.2 | 0.56 | 1.47 | 1.47 | 92 | 1014.5 |
| 20260508111021 | 15 | 171 | 0.0 | 3.2 | 0.36 | 1.30 | 1.30 | 92 | 1014.6 |
| 20260508110521 | 16 | 155 | 0.0 | 3.2 | 0.33 | 1.24 | 1.24 | 92 | 1014.7 |
| 20260508110038 | 15 | 0 | 0.0 | 3.2 | 0.25 | 1.17 | 1.17 | 92 | 1015.0 |
| 20260508105523 | 15 | 148 | 0.0 | 4.8 | 0.20 | 1.12 | 1.12 | 92 | 1015.3 |
| 20260508105020 | 15 | 323 | 1.6 | 4.8 | 0.18 | 1.09 | 1.09 | 92 | 1015.5 |
| 20260508104538 | 15 | 0 | 0.0 | 3.2 | 0.18 | 1.09 | 1.09 | 92 | 1015.0 |
| 20260508104022 | 15 | 0 | 0.0 | 6.4 | 0.18 | 1.09 | 1.09 | 92 | 1014.8 |
| 20260508103521 | 15 | 315 | 3.2 | 6.4 | 0.15 | 1.07 | 1.07 | 92 | 1015.4 |
| 20260508103038 | 15 | 338 | 1.6 | 6.4 | 0.15 | 1.07 | 1.07 | 92 | 1014.9 |
| 20260508102521 | 15 | 22 | 1.6 | 4.8 | 0.15 | 1.07 | 1.07 | 92 | 1014.4 |
| 20260508102022 | 15 | 0 | 1.6 | 4.8 | 0.08 | 0.99 | 0.99 | 92 | 1014.6 |
| 20260508101536 | 15 | 231 | 0.0 | 6.4 | 0.03 | 0.94 | 0.94 | 91 | 1014.7 |
| 20260508101020 | 15 | 0 | 0.0 | 6.4 | 0.03 | 0.94 | 0.94 | 91 | 1014.1 |
| 20260508100521 | 15 | 0 | 0.0 | 4.8 | 0.00 | 0.91 | 0.91 | 91 | 1013.9 |
| 20260508100035 | 15 | 0 | 0.0 | 6.4 | 0.00 | 0.91 | 0.91 | 91 | 1013.8 |
| 20260508095521 | 15 | 167 | 0.0 | 6.4 | 0.00 | 0.91 | 0.91 | 91 | 1013.8 |
| 20260508095022 | 15 | 0 | 0.0 | 1.6 | 0.00 | 0.91 | 0.91 | 91 | 1013.9 |
| 20260508094540 | 15 | 0 | 0.0 | 1.6 | 0.00 | 0.91 | 0.91 | 91 | 1014.0 |
| 20260508094022 | 15 | 0 | 0.0 | 1.6 | 0.00 | 0.91 | 0.91 | 91 | 1014.0 |
| 20260508093522 | 15 | 163 | 0.0 | 1.6 | 0.00 | 0.91 | 0.91 | 91 | 1014.1 |
| 20260508093038 | 15 | 0 | 0.0 | 1.6 | 0.00 | 0.91 | 0.91 | 91 | 1014.2 |
| 20260508092519 | 15 | 0 | 0.0 | 1.6 | 0.03 | 0.91 | 0.91 | 91 | 1014.2 |
| 20260508092019 | 15 | 0 | 0.0 | 4.8 | 0.03 | 0.91 | 0.91 | 91 | 1014.1 |
| 20260508091544 | 15 | 0 | 0.0 | 4.8 | 0.03 | 0.91 | 0.91 | 91 | 1014.1 |
| 20260508091018 | 15 | 0 | 1.6 | 3.2 | 0.03 | 0.91 | 0.91 | 91 | 1014.2 |